sat.trackr.live / text

‹ back to catalog

SCS-01 H

NORAD 63989 · 2025-100H

PAYLOAD ACTIVE UNKNOWN

§ Identity

Operator
Country
PRC
Launch date
2025-05-14
Launch site
JSC
Launch vehicle
Mass (kg)
RCS (m²)

External: N2YO · Heavens-Above · Gunter

§ Orbital elements

Epoch: 2026-05-25T04:16:31.620000Z

Period
93.86 min
Inclination
97.3688°
Eccentricity
0.0007925
Mean motion
15.34215326 rev/d
Perigee alt
457.8 km
Apogee alt
468.7 km
Semi-major
6,841.4 km
B*
8.9895e-4
RAAN
221.6952°
Arg perigee
18.9331°
Mean anomaly
341.2205°
Rev number
5,733

§ Raw data

SCS-01 H1 63989U 25100H   26145.17814375  .00029803  00000+0  89895-3 0  99902 63989  97.3688 221.6952 0007925  18.9331 341.2205 15.34215326 57330

JSON: /api/v1/satellites/63989 · /tle

For live sub-satellite position, see the globe view (requires WebGL).

§ Visibility from observer

Set your observer location to see the next 7 days of passes ≥ 10°. The values pass through the URL so the page stays shareable.

No JS? Fill the form by hand. The geolocation button needs JavaScript.